TimeMST,TemperatureF,Dew PointF,Humidity,Sea Level PressureIn,VisibilityMPH,Wind Direction,Wind SpeedMPH,Gust SpeedMPH,PrecipitationIn,Events,Conditions,WindDirDegrees,DateUTC
12:56 AM,14.0,1.0,56,30.45,10.0,South,4.6,-,N/A,,Clear,190,2014-01-06 07:56:00
1:56 AM,12.9,1.0,59,30.47,10.0,SSW,3.5,-,N/A,,Clear,210,2014-01-06 08:56:00
2:56 AM,14.0,1.9,59,30.48,10.0,Calm,Calm,-,N/A,,Clear,0,2014-01-06 09:56:00
3:56 AM,17.1,1.9,52,30.49,10.0,Calm,Calm,-,N/A,,Clear,0,2014-01-06 10:56:00
4:56 AM,12.9,3.0,65,30.52,10.0,Calm,Calm,-,N/A,,Clear,0,2014-01-06 11:56:00
5:56 AM,12.0,1.9,64,30.57,10.0,Calm,Calm,-,N/A,,Clear,0,2014-01-06 12:56:00
6:56 AM,10.0,1.0,67,30.61,10.0,ESE,5.8,-,N/A,,Clear,110,2014-01-06 13:56:00
7:56 AM,10.9,1.0,64,30.64,10.0,ESE,3.5,-,N/A,,Clear,120,2014-01-06 14:56:00
8:56 AM,18.0,3.0,52,30.63,10.0,ESE,4.6,-,N/A,,Clear,110,2014-01-06 15:56:00
9:56 AM,25.0,6.1,45,30.61,10.0,SE,3.5,-,N/A,,Clear,130,2014-01-06 16:56:00
10:56 AM,32.0,5.0,32,30.58,10.0,Variable,3.5,-,N/A,,Clear,0,2014-01-06 17:56:00
11:56 AM,37.0,3.9,25,30.52,10.0,Calm,Calm,-,N/A,,Clear,0,2014-01-06 18:56:00
12:56 PM,39.9,-0.0,19,30.48,10.0,Variable,3.5,-,N/A,,Clear,0,2014-01-06 19:56:00
1:56 PM,41.0,-0.0,18,30.46,10.0,Calm,Calm,-,N/A,,Clear,0,2014-01-06 20:56:00
2:56 PM,44.1,-2.9,14,30.43,10.0,Variable,3.5,-,N/A,,Clear,0,2014-01-06 21:56:00
3:56 PM,43.0,-2.9,15,30.42,10.0,Calm,Calm,-,N/A,,Clear,0,2014-01-06 22:56:00
4:56 PM,42.1,-0.9,17,30.43,10.0,WNW,3.5,-,N/A,,Clear,290,2014-01-06 23:56:00
5:56 PM,32.0,-0.0,26,30.46,10.0,Calm,Calm,-,N/A,,Clear,0,2014-01-07 00:56:00
6:56 PM,24.1,-0.9,34,30.51,10.0,Calm,Calm,-,N/A,,Clear,0,2014-01-07 01:56:00
7:56 PM,21.9,-0.0,38,30.52,10.0,Calm,Calm,-,N/A,,Clear,0,2014-01-07 02:56:00
8:56 PM,19.9,-0.0,42,30.50,10.0,Calm,Calm,-,N/A,,Clear,0,2014-01-07 03:56:00
9:56 PM,19.0,1.9,47,30.48,10.0,SW,6.9,-,N/A,,Clear,220,2014-01-07 04:56:00
10:56 PM,18.0,3.0,52,30.45,10.0,Calm,Calm,-,N/A,,Clear,0,2014-01-07 05:56:00
11:56 PM,19.0,3.0,50,30.41,10.0,Calm,Calm,-,N/A,,Clear,0,2014-01-07 06:56:00